Cloud_Cover
100 100 100 100 100 23 72 20 81 46 1 10 5 0 0 0 5 2 0 0 6 5 2 3 5 0 0 0 0 0 0 0 0 0 5 0 0 0 0 0 0 5 3 1 5
100 100 100 100 100 100 100 11 0 0 0 0 0 0 0 0 2 99 14 0 4 5 5 5 4 0 0 0 2 0 0 0 0 0 5 0 5 4 0 0 0 0 0 0 5
100 100 100 100 100 100 100 100 3 0 4 0 1 0 2 0 34 40 99 5 84 5 99 5 0 0 0 0 5 5 1 2 0 0 4 1 79 5 0 0 0 0 0 0 0
100 100 100 100 100 100 83 100 11 1 0 0 3 5 5 5 60 100 59 99 100 88 100 100 38 2 1 5 40 5 5 2 0 2 59 32 90 0 0 0 0 0 0 0 0
100 100 100 100 100 100 60 12 0 0 0 0 0 5 5 7 93 100 94 98 100 100 74 100 44 5 5 5 8 5 5 3 0 0 31 74 10 5 0 0 0 0 0 0 0
100 100 100 89 24 32 3 3 0 0 0 0 0 5 5 8 96 99 100 100 100 100 5 100 92 5 4 5 5 5 5 5 0 0 39 50 5 2 0 0 0 0 0 0 0
100 100 97 100 11 0 0 0 0 0 0 0 5 2 2 11 8 69 100 100 100 100 65 91 100 5 5 5 5 5 5 7 0 34 100 100 17 5 0 0 0 0 0 0 0
100 96 18 5 2 0 0 0 0 0 0 0 19 5 1 5 5 100 100 100 100 99 99 98 100 45 99 37 7 82 30 5 2 37 100 39 5 0 0 0 0 0 0 0 0
61 67 14 5 2 0 0 0 0 0 0 2 37 6 62 5 36 100 100 100 100 100 78 58 99 100 100 62 18 100 23 36 36 6 95 62 5 2 0 0 0 0 0 0 0
83 14 5 4 0 0 0 0 0 0 2 21 12 5 64 5 100 100 100 100 100 100 100 56 100 100 100 100 100 7 60 41 35 5 100 53 5 5 4 0 0 3 0 0 0
68 21 5 4 4 5 1 0 0 0 30 0 81 99 5 31 100 55 100 100 100 100 100 100 100 100 100 100 36 91 99 100 6 5 100 72 12 5 5 1 3 14 4 0 0
28 56 83 100 17 3 7 32 44 50 99 0 100 100 60 91 100 100 100 100 100 100 100 81 97 100 100 100 99 96 99 100 22 5 100 56 77 26 50 7 3 61 7 4 0
77 89 100 99 5 7 11 39 5 5 64 27 31 100 100 100 100 100 100 100 100 100 100 97 100 100 100 100 93 92 100 93 100 14 100 100 91 52 66 95 0 2 5 5 0
7 79 19 9 46 6 94 12 3 9 68 90 49 100 100 100 100 100 100 100 100 100 100 85 100 100 87 99 100 100 100 100 72 47 100 100 100 5 23 12 5 0 0 0 5
54 6 5 6 29 73 39 5 3 76 3 100 92 86 100 100 100 100 100 100 100 100 100 100 100 100 100 100 92 100 97 100 100 19 100 100 99 99 12 6 5 0 0 1 5
45 11 5 33 52 8 13 3 16 58 23 100 100 97 100 100 100 100 100 100 100 97 100 100 100 100 100 100 100 100 98 98 22 75 100 92 52 26 14 94 5 0 0 0 5
10 5 5 50 84 5 16 15 22 0 8 100 100 100 100 100 100 100 100 100 100 100 96 100 100 100 100 91 68 99 100 89 97 54 100 18 28 100 30 9 5 3 0 0 5
100 24 5 48 69 49 54 46 4 0 5 100 100 100 100 100 100 100 100 100 100 100 100 100 100 100 100 100 100 100 100 98 92 99 77 70 100 100 47 5 84 5 0 0 0
9 10 61 22 5 34 55 54 0 5 4 71 100 100 100 100 100 100 100 100 100 100 100 100 100 100 100 100 100 100 100 99 96 99 82 87 100 100 100 100 100 5 0 1 0
43 66 90 10 5 58 70 25 5 4 6 5 100 100 100 100 100 100 100 100 100 100 100 100 100 100 100 100 99 97 78 100 93 60 100 100 100 100 100 100 100 72 5 0 0
61 93 98 34 17 89 100 78 16 5 6 4 69 100 100 100 100 100 99 100 100 100 100 100 100 100 100 100 100 100 84 80 89 92 100 100 100 100 100 22 98 96 5 0 0
66 94 15 38 69 58 100 83 75 32 2 5 6 100 100 100 100 100 100 100 100 100 100 100 100 100 100 100 100 100 100 100 100 100 100 95 100 100 100 100 100 100 100 4 0
94 100 72 47 87 84 90 86 85 14 98 55 5 23 86 96 100 100 100 100 100 100 100 100 100 100 100 87 100 100 100 100 100 99 95 89 100 100 100 100 100 100 92 98 97
82 78 40 86 90 98 97 55 92 5 78 100 86 54 84 97 96 100 100 100 100 100 100 100 100 100 100 100 100 100 100 100 100 67 87 52 96 99 100 100 100 100 100 100 90
100 76 92 98 65 86 94 90 100 100 55 96 84 5 62 100 100 99 100 84 100 100 100 100 100 100 100 100 100 100 100 100 100 100 93 100 98 100 100 100 100 100 100 100 100
96 73 80 12 91 99 100 28 75 100 83 88 6 41 23 80 100 100 100 60 100 100 100 100 100 100 100 100 100 100 100 100 100 100 100 100 88 69 98 100 100 100 100 100 100
96 78 98 35 70 70 41 36 12 14 72 52 91 99 86 75 100 100 100 100 92 100 100 100 100 100 100 100 100 100 100 100 100 100 97 95 91 96 56 100 100 100 100 100 100